owner,sensor,date,latitude,longitude,air_pressure(mBar),qcFlag 
COMPS,ioos:station:USF.COMPS:NFB:1,2011-08-01T12:00:00Z,25.0840,-81.0960,1015.61,1111122 
COMPS,ioos:station:USF.COMPS:NFB:1,2011-08-01T12:06:00Z,25.0840,-81.0960,1015.57,1111122 
COMPS,ioos:station:USF.COMPS:NFB:1,2011-08-01T12:12:00Z,25.0840,-81.0960,1015.64,1111122 
COMPS,ioos:station:USF.COMPS:NFB:1,2011-08-01T12:18:00Z,25.0840,-81.0960,1015.69,1111122 
COMPS,ioos:station:USF.COMPS:NFB:1,2011-08-01T12:24:00Z,25.0840,-81.0960,1015.72,1111122 
COMPS,ioos:station:USF.COMPS:NFB:1,2011-08-01T12:30:00Z,25.0840,-81.0960,1015.76,1111122 
COMPS,ioos:station:USF.COMPS:NFB:1,2011-08-01T12:36:00Z,25.0840,-81.0960,1015.82,1111122 
COMPS,ioos:station:USF.COMPS:NFB:1,2011-08-01T12:42:00Z,25.0840,-81.0960,1015.92,1111122 
COMPS,ioos:station:USF.COMPS:NFB:1,2011-08-01T12:48:00Z,25.0840,-81.0960,1015.97,1111122 
COMPS,ioos:station:USF.COMPS:NFB:1,2011-08-01T12:54:00Z,25.0840,-81.0960,1015.89,1111122 
COMPS,ioos:station:USF.COMPS:NFB:1,2011-08-01T13:00:00Z,25.0840,-81.0960,1015.9,1111122 
COMPS,ioos:station:USF.COMPS:NFB:1,2011-08-01T13:06:00Z,25.0840,-81.0960,1015.84,1111122 
COMPS,ioos:station:USF.COMPS:NFB:1,2011-08-01T13:12:00Z,25.0840,-81.0960,1015.77,1111122 
COMPS,ioos:station:USF.COMPS:NFB:1,2011-08-01T13:18:00Z,25.0840,-81.0960,1015.78,1111122 
COMPS,ioos:station:USF.COMPS:NFB:1,2011-08-01T13:24:00Z,25.0840,-81.0960,1015.88,1111122 
COMPS,ioos:station:USF.COMPS:NFB:1,2011-08-01T13:30:00Z,25.0840,-81.0960,1015.93,1111122 
COMPS,ioos:station:USF.COMPS:NFB:1,2011-08-01T13:36:00Z,25.0840,-81.0960,1015.9,1111122 
COMPS,ioos:station:USF.COMPS:NFB:1,2011-08-01T13:42:00Z,25.0840,-81.0960,1015.94,1111122 
COMPS,ioos:station:USF.COMPS:NFB:1,2011-08-01T13:48:00Z,25.0840,-81.0960,1016.02,1111122 
COMPS,ioos:station:USF.COMPS:NFB:1,2011-08-01T13:54:00Z,25.0840,-81.0960,1016.08,1111122 
COMPS,ioos:station:USF.COMPS:NFB:1,2011-08-01T14:00:00Z,25.0840,-81.0960,1016.09,1111122 
COMPS,ioos:station:USF.COMPS:NFB:1,2011-08-01T14:06:00Z,25.0840,-81.0960,1016.08,1111122 
COMPS,ioos:station:USF.COMPS:NFB:1,2011-08-01T14:12:00Z,25.0840,-81.0960,1016.14,1111122 
COMPS,ioos:station:USF.COMPS:NFB:1,2011-08-01T14:18:00Z,25.0840,-81.0960,1016.22,1111122 
COMPS,ioos:station:USF.COMPS:NFB:1,2011-08-01T14:24:00Z,25.0840,-81.0960,1016.18,1111122 
COMPS,ioos:station:USF.COMPS:NFB:1,2011-08-01T14:30:00Z,25.0840,-81.0960,1016.09,1111122 
COMPS,ioos:station:USF.COMPS:NFB:1,2011-08-01T14:36:00Z,25.0840,-81.0960,1015.88,1111122 
COMPS,ioos:station:USF.COMPS:NFB:1,2011-08-01T14:42:00Z,25.0840,-81.0960,1015.81,1111122 
COMPS,ioos:station:USF.COMPS:NFB:1,2011-08-01T14:48:00Z,25.0840,-81.0960,1015.78,1111122 
COMPS,ioos:station:USF.COMPS:NFB:1,2011-08-01T14:54:00Z,25.0840,-81.0960,1015.9,1111122 
COMPS,ioos:station:USF.COMPS:NFB:1,2011-08-01T15:00:00Z,25.0840,-81.0960,1016.0,1111122 
COMPS,ioos:station:USF.COMPS:NFB:1,2011-08-01T15:06:00Z,25.0840,-81.0960,1016.06,1111122 
COMPS,ioos:station:USF.COMPS:NFB:1,2011-08-01T15:12:00Z,25.0840,-81.0960,1016.08,1111122 
COMPS,ioos:station:USF.COMPS:NFB:1,2011-08-01T15:18:00Z,25.0840,-81.0960,1016.16,1111122 
COMPS,ioos:station:USF.COMPS:NFB:1,2011-08-01T15:24:00Z,25.0840,-81.0960,1016.1,1111122 
COMPS,ioos:station:USF.COMPS:NFB:1,2011-08-01T15:30:00Z,25.0840,-81.0960,1016.06,1111122 
COMPS,ioos:station:USF.COMPS:NFB:1,2011-08-01T15:36:00Z,25.0840,-81.0960,1016.08,1111122 
COMPS,ioos:station:USF.COMPS:NFB:1,2011-08-01T15:42:00Z,25.0840,-81.0960,1016.06,1111122 
COMPS,ioos:station:USF.COMPS:NFB:1,2011-08-01T15:48:00Z,25.0840,-81.0960,1016.09,1111122 
COMPS,ioos:station:USF.COMPS:NFB:1,2011-08-01T15:54:00Z,25.0840,-81.0960,1016.08,1111122 
COMPS,ioos:station:USF.COMPS:NFB:1,2011-08-01T16:00:00Z,25.0840,-81.0960,1016.1,1111122 
COMPS,ioos:station:USF.COMPS:NFB:1,2011-08-01T16:06:00Z,25.0840,-81.0960,1016.0,1111122 
COMPS,ioos:station:USF.COMPS:NFB:1,2011-08-01T16:12:00Z,25.0840,-81.0960,1015.96,1111122 
COMPS,ioos:station:USF.COMPS:NFB:1,2011-08-01T16:18:00Z,25.0840,-81.0960,1015.94,1111122 
COMPS,ioos:station:USF.COMPS:NFB:1,2011-08-01T16:24:00Z,25.0840,-81.0960,1015.93,1111122 
COMPS,ioos:station:USF.COMPS:NFB:1,2011-08-01T16:30:00Z,25.0840,-81.0960,1015.94,1111122 
COMPS,ioos:station:USF.COMPS:NFB:1,2011-08-01T16:36:00Z,25.0840,-81.0960,1015.94,1111122 
COMPS,ioos:station:USF.COMPS:NFB:1,2011-08-01T16:42:00Z,25.0840,-81.0960,1015.92,1111122 
COMPS,ioos:station:USF.COMPS:NFB:1,2011-08-01T16:48:00Z,25.0840,-81.0960,1015.81,1111122 
COMPS,ioos:station:USF.COMPS:NFB:1,2011-08-01T16:54:00Z,25.0840,-81.0960,1015.78,1111122 
COMPS,ioos:station:USF.COMPS:NFB:1,2011-08-01T17:00:00Z,25.0840,-81.0960,1015.8,1111122 
COMPS,ioos:station:USF.COMPS:NFB:1,2011-08-01T18:00:00Z,25.0840,-81.0960,1015.62,1111122 
COMPS,ioos:station:USF.COMPS:NFB:1,2011-08-01T18:06:00Z,25.0840,-81.0960,1015.56,1111122 
COMPS,ioos:station:USF.COMPS:NFB:1,2011-08-01T18:12:00Z,25.0840,-81.0960,1015.57,1111122 
COMPS,ioos:station:USF.COMPS:NFB:1,2011-08-01T18:18:00Z,25.0840,-81.0960,1015.57,1111122 
COMPS,ioos:station:USF.COMPS:NFB:1,2011-08-01T18:24:00Z,25.0840,-81.0960,1015.6,1111122 
COMPS,ioos:station:USF.COMPS:NFB:1,2011-08-01T18:30:00Z,25.0840,-81.0960,1015.5,1111122 
COMPS,ioos:station:USF.COMPS:NFB:1,2011-08-01T18:36:00Z,25.0840,-81.0960,1015.48,1111122 
COMPS,ioos:station:USF.COMPS:NFB:1,2011-08-01T18:42:00Z,25.0840,-81.0960,1015.49,1111122 
COMPS,ioos:station:USF.COMPS:NFB:1,2011-08-01T18:48:00Z,25.0840,-81.0960,1015.44,1111122 
COMPS,ioos:station:USF.COMPS:NFB:1,2011-08-01T18:54:00Z,25.0840,-81.0960,1015.41,1111122 
COMPS,ioos:station:USF.COMPS:NFB:1,2011-08-01T19:00:00Z,25.0840,-81.0960,1015.4,1111122 
COMPS,ioos:station:USF.COMPS:NFB:1,2011-08-01T19:06:00Z,25.0840,-81.0960,1015.37,1111122 
COMPS,ioos:station:USF.COMPS:NFB:1,2011-08-01T19:12:00Z,25.0840,-81.0960,1015.2,1111122 
COMPS,ioos:station:USF.COMPS:NFB:1,2011-08-01T19:18:00Z,25.0840,-81.0960,1015.14,1111122 
COMPS,ioos:station:USF.COMPS:NFB:1,2011-08-01T19:24:00Z,25.0840,-81.0960,1015.1,1111122 
COMPS,ioos:station:USF.COMPS:NFB:1,2011-08-01T19:30:00Z,25.0840,-81.0960,1015.0,1111122 
COMPS,ioos:station:USF.COMPS:NFB:1,2011-08-01T19:36:00Z,25.0840,-81.0960,1014.81,1111122 
COMPS,ioos:station:USF.COMPS:NFB:1,2011-08-01T19:42:00Z,25.0840,-81.0960,1014.78,1111122 
COMPS,ioos:station:USF.COMPS:NFB:1,2011-08-01T19:48:00Z,25.0840,-81.0960,1014.8,1111122 
COMPS,ioos:station:USF.COMPS:NFB:1,2011-08-01T19:54:00Z,25.0840,-81.0960,1014.73,1111122 
COMPS,ioos:station:USF.COMPS:NFB:1,2011-08-01T20:00:00Z,25.0840,-81.0960,1014.7,1111122 
COMPS,ioos:station:USF.COMPS:NFB:1,2011-08-01T20:06:00Z,25.0840,-81.0960,1014.64,1111122 
COMPS,ioos:station:USF.COMPS:NFB:1,2011-08-01T20:12:00Z,25.0840,-81.0960,1014.72,1111122 
COMPS,ioos:station:USF.COMPS:NFB:1,2011-08-01T20:18:00Z,25.0840,-81.0960,1014.74,1111122 
COMPS,ioos:station:USF.COMPS:NFB:1,2011-08-01T20:24:00Z,25.0840,-81.0960,1014.69,1111122 
COMPS,ioos:station:USF.COMPS:NFB:1,2011-08-01T20:30:00Z,25.0840,-81.0960,1014.65,1111122 
COMPS,ioos:station:USF.COMPS:NFB:1,2011-08-01T20:36:00Z,25.0840,-81.0960,1014.62,1111122 
COMPS,ioos:station:USF.COMPS:NFB:1,2011-08-01T20:42:00Z,25.0840,-81.0960,1014.69,1111122 
COMPS,ioos:station:USF.COMPS:NFB:1,2011-08-01T20:48:00Z,25.0840,-81.0960,1014.76,1111122 
COMPS,ioos:station:USF.COMPS:NFB:1,2011-08-01T20:54:00Z,25.0840,-81.0960,1014.73,1111122 
COMPS,ioos:station:USF.COMPS:NFB:1,2011-08-01T21:00:00Z,25.0840,-81.0960,1014.7,1111122 
COMPS,ioos:station:USF.COMPS:NFB:1,2011-08-01T21:06:00Z,25.0840,-81.0960,1014.46,1111122 
COMPS,ioos:station:USF.COMPS:NFB:1,2011-08-01T21:12:00Z,25.0840,-81.0960,1014.42,1111122 
COMPS,ioos:station:USF.COMPS:NFB:1,2011-08-01T21:18:00Z,25.0840,-81.0960,1014.56,1111122 
COMPS,ioos:station:USF.COMPS:NFB:1,2011-08-01T21:24:00Z,25.0840,-81.0960,1014.69,1111122 
COMPS,ioos:station:USF.COMPS:NFB:1,2011-08-01T21:30:00Z,25.0840,-81.0960,1014.69,1111122 
COMPS,ioos:station:USF.COMPS:NFB:1,2011-08-01T21:36:00Z,25.0840,-81.0960,1014.58,1111122 
COMPS,ioos:station:USF.COMPS:NFB:1,2011-08-01T21:42:00Z,25.0840,-81.0960,1014.45,1111122 
COMPS,ioos:station:USF.COMPS:NFB:1,2011-08-01T21:48:00Z,25.0840,-81.0960,1014.57,1111122 
COMPS,ioos:station:USF.COMPS:NFB:1,2011-08-01T21:54:00Z,25.0840,-81.0960,1014.73,1111122 
COMPS,ioos:station:USF.COMPS:NFB:1,2011-08-01T22:00:00Z,25.0840,-81.0960,1014.7,1111122 
COMPS,ioos:station:USF.COMPS:NFB:1,2011-08-01T22:06:00Z,25.0840,-81.0960,1014.8,1111122 
COMPS,ioos:station:USF.COMPS:NFB:1,2011-08-01T22:12:00Z,25.0840,-81.0960,1014.73,1111122 
COMPS,ioos:station:USF.COMPS:NFB:1,2011-08-01T22:18:00Z,25.0840,-81.0960,1014.65,1111122 
COMPS,ioos:station:USF.COMPS:NFB:1,2011-08-01T22:24:00Z,25.0840,-81.0960,1014.42,1111122 
COMPS,ioos:station:USF.COMPS:NFB:1,2011-08-01T22:30:00Z,25.0840,-81.0960,1014.4,1111122 
COMPS,ioos:station:USF.COMPS:NFB:1,2011-08-01T22:36:00Z,25.0840,-81.0960,1014.44,1111122 
COMPS,ioos:station:USF.COMPS:NFB:1,2011-08-01T22:42:00Z,25.0840,-81.0960,1014.34,1111122 
COMPS,ioos:station:USF.COMPS:NFB:1,2011-08-01T22:48:00Z,25.0840,-81.0960,1014.28,1111122 
COMPS,ioos:station:USF.COMPS:NFB:1,2011-08-01T22:54:00Z,25.0840,-81.0960,1014.34,1111122 
COMPS,ioos:station:USF.COMPS:NFB:1,2011-08-01T23:00:00Z,25.0840,-81.0960,1014.3,1111122 
COMPS,ioos:station:USF.COMPS:NFB:1,2011-08-01T23:06:00Z,25.0840,-81.0960,1014.53,1111122 
COMPS,ioos:station:USF.COMPS:NFB:1,2011-08-01T23:12:00Z,25.0840,-81.0960,1014.61,1111122 
COMPS,ioos:station:USF.COMPS:NFB:1,2011-08-01T23:18:00Z,25.0840,-81.0960,1014.66,1111122 
COMPS,ioos:station:USF.COMPS:NFB:1,2011-08-01T23:24:00Z,25.0840,-81.0960,1014.73,1111122 
COMPS,ioos:station:USF.COMPS:NFB:1,2011-08-01T23:30:00Z,25.0840,-81.0960,1014.82,1111122 
COMPS,ioos:station:USF.COMPS:NFB:1,2011-08-01T23:36:00Z,25.0840,-81.0960,1014.8,1111122 
COMPS,ioos:station:USF.COMPS:NFB:1,2011-08-01T23:42:00Z,25.0840,-81.0960,1014.82,1111122 
COMPS,ioos:station:USF.COMPS:NFB:1,2011-08-01T23:48:00Z,25.0840,-81.0960,1014.76,1111122 
COMPS,ioos:station:USF.COMPS:NFB:1,2011-08-01T23:54:00Z,25.0840,-81.0960,1014.72,1111122 
COMPS,ioos:station:USF.COMPS:NFB:1,2011-08-02T00:00:00Z,25.0840,-81.0960,1014.7,1111122 
COMPS,ioos:station:USF.COMPS:NFB:1,2011-08-02T00:06:00Z,25.0840,-81.0960,1014.73,1111122 
COMPS,ioos:station:USF.COMPS:NFB:1,2011-08-02T00:12:00Z,25.0840,-81.0960,1014.77,1111122 
COMPS,ioos:station:USF.COMPS:NFB:1,2011-08-02T00:18:00Z,25.0840,-81.0960,1014.88,1111122 
COMPS,ioos:station:USF.COMPS:NFB:1,2011-08-02T00:24:00Z,25.0840,-81.0960,1014.88,1111122 
COMPS,ioos:station:USF.COMPS:NFB:1,2011-08-02T00:30:00Z,25.0840,-81.0960,1014.8,1111122 
COMPS,ioos:station:USF.COMPS:NFB:1,2011-08-02T00:36:00Z,25.0840,-81.0960,1014.76,1111122 
COMPS,ioos:station:USF.COMPS:NFB:1,2011-08-02T00:42:00Z,25.0840,-81.0960,1014.84,1111122 
COMPS,ioos:station:USF.COMPS:NFB:1,2011-08-02T00:48:00Z,25.0840,-81.0960,1014.93,1111122 
COMPS,ioos:station:USF.COMPS:NFB:1,2011-08-02T00:54:00Z,25.0840,-81.0960,1014.97,1111122 
COMPS,ioos:station:USF.COMPS:NFB:1,2011-08-02T01:00:00Z,25.0840,-81.0960,1015.0,1111122 
COMPS,ioos:station:USF.COMPS:NFB:1,2011-08-02T01:06:00Z,25.0840,-81.0960,1015.0,1111122 
COMPS,ioos:station:USF.COMPS:NFB:1,2011-08-02T01:12:00Z,25.0840,-81.0960,1015.04,1111122 
COMPS,ioos:station:USF.COMPS:NFB:1,2011-08-02T01:18:00Z,25.0840,-81.0960,1015.09,1111122 
COMPS,ioos:station:USF.COMPS:NFB:1,2011-08-02T01:24:00Z,25.0840,-81.0960,1015.12,1111122 
COMPS,ioos:station:USF.COMPS:NFB:1,2011-08-02T01:30:00Z,25.0840,-81.0960,1015.14,1111122 
COMPS,ioos:station:USF.COMPS:NFB:1,2011-08-02T01:36:00Z,25.0840,-81.0960,1015.33,1111122 
COMPS,ioos:station:USF.COMPS:NFB:1,2011-08-02T01:42:00Z,25.0840,-81.0960,1015.44,1111122 
COMPS,ioos:station:USF.COMPS:NFB:1,2011-08-02T01:48:00Z,25.0840,-81.0960,1015.4,1111122 
COMPS,ioos:station:USF.COMPS:NFB:1,2011-08-02T01:54:00Z,25.0840,-81.0960,1015.4,1111122 
COMPS,ioos:station:USF.COMPS:NFB:1,2011-08-02T02:00:00Z,25.0840,-81.0960,1015.4,1111122 
COMPS,ioos:station:USF.COMPS:NFB:1,2011-08-02T02:06:00Z,25.0840,-81.0960,1015.4,1111122 
COMPS,ioos:station:USF.COMPS:NFB:1,2011-08-02T02:12:00Z,25.0840,-81.0960,1015.45,1111122 
COMPS,ioos:station:USF.COMPS:NFB:1,2011-08-02T02:18:00Z,25.0840,-81.0960,1015.48,1111122 
COMPS,ioos:station:USF.COMPS:NFB:1,2011-08-02T02:24:00Z,25.0840,-81.0960,1015.5,1111122 
COMPS,ioos:station:USF.COMPS:NFB:1,2011-08-02T02:30:00Z,25.0840,-81.0960,1015.62,1111122 
COMPS,ioos:station:USF.COMPS:NFB:1,2011-08-02T02:36:00Z,25.0840,-81.0960,1015.64,1111122 
COMPS,ioos:station:USF.COMPS:NFB:1,2011-08-02T02:42:00Z,25.0840,-81.0960,1015.6,1111122 
COMPS,ioos:station:USF.COMPS:NFB:1,2011-08-02T02:48:00Z,25.0840,-81.0960,1015.57,1111122 
COMPS,ioos:station:USF.COMPS:NFB:1,2011-08-02T02:54:00Z,25.0840,-81.0960,1015.49,1111122 
COMPS,ioos:station:USF.COMPS:NFB:1,2011-08-02T03:00:00Z,25.0840,-81.0960,1015.5,1111122 
COMPS,ioos:station:USF.COMPS:NFB:1,2011-08-02T12:00:00Z,25.0840,-81.0960,1013.97,1111122 
COMPS,ioos:station:USF.COMPS:NFB:1,2011-08-02T12:06:00Z,25.0840,-81.0960,1014.09,1111122 
COMPS,ioos:station:USF.COMPS:NFB:1,2011-08-02T12:12:00Z,25.0840,-81.0960,1014.16,1111122 
COMPS,ioos:station:USF.COMPS:NFB:1,2011-08-02T12:18:00Z,25.0840,-81.0960,1014.22,1111122 
COMPS,ioos:station:USF.COMPS:NFB:1,2011-08-02T12:24:00Z,25.0840,-81.0960,1014.22,1111122 
COMPS,ioos:station:USF.COMPS:NFB:1,2011-08-02T12:30:00Z,25.0840,-81.0960,1014.13,1111122 
COMPS,ioos:station:USF.COMPS:NFB:1,2011-08-02T12:36:00Z,25.0840,-81.0960,1014.08,1111122 
COMPS,ioos:station:USF.COMPS:NFB:1,2011-08-02T12:42:00Z,25.0840,-81.0960,1014.1,1111122 
COMPS,ioos:station:USF.COMPS:NFB:1,2011-08-02T12:48:00Z,25.0840,-81.0960,1014.18,1111122 
COMPS,ioos:station:USF.COMPS:NFB:1,2011-08-02T12:54:00Z,25.0840,-81.0960,1014.18,1111122 
COMPS,ioos:station:USF.COMPS:NFB:1,2011-08-02T13:00:00Z,25.0840,-81.0960,1014.2,1111122 
COMPS,ioos:station:USF.COMPS:NFB:1,2011-08-02T13:06:00Z,25.0840,-81.0960,1014.24,1111122 
COMPS,ioos:station:USF.COMPS:NFB:1,2011-08-02T13:12:00Z,25.0840,-81.0960,1014.29,1111122 
COMPS,ioos:station:USF.COMPS:NFB:1,2011-08-02T13:18:00Z,25.0840,-81.0960,1014.48,1111122 
COMPS,ioos:station:USF.COMPS:NFB:1,2011-08-02T13:24:00Z,25.0840,-81.0960,1014.61,1111122 
COMPS,ioos:station:USF.COMPS:NFB:1,2011-08-02T13:30:00Z,25.0840,-81.0960,1014.56,1111122 
COMPS,ioos:station:USF.COMPS:NFB:1,2011-08-02T13:36:00Z,25.0840,-81.0960,1014.44,1111122 
COMPS,ioos:station:USF.COMPS:NFB:1,2011-08-02T13:42:00Z,25.0840,-81.0960,1014.52,1111122 
COMPS,ioos:station:USF.COMPS:NFB:1,2011-08-02T13:48:00Z,25.0840,-81.0960,1014.56,1111122 
COMPS,ioos:station:USF.COMPS:NFB:1,2011-08-02T13:54:00Z,25.0840,-81.0960,1014.56,1111122 
COMPS,ioos:station:USF.COMPS:NFB:1,2011-08-02T14:00:00Z,25.0840,-81.0960,1014.5,1111122 
COMPS,ioos:station:USF.COMPS:NFB:1,2011-08-02T14:06:00Z,25.0840,-81.0960,1014.54,1111122 
COMPS,ioos:station:USF.COMPS:NFB:1,2011-08-02T14:12:00Z,25.0840,-81.0960,1014.6,1111122 
COMPS,ioos:station:USF.COMPS:NFB:1,2011-08-02T14:18:00Z,25.0840,-81.0960,1014.54,1111122 
COMPS,ioos:station:USF.COMPS:NFB:1,2011-08-02T14:24:00Z,25.0840,-81.0960,1014.46,1111122 
COMPS,ioos:station:USF.COMPS:NFB:1,2011-08-02T14:30:00Z,25.0840,-81.0960,1014.48,1111122 
COMPS,ioos:station:USF.COMPS:NFB:1,2011-08-02T14:36:00Z,25.0840,-81.0960,1014.38,1111122 
COMPS,ioos:station:USF.COMPS:NFB:1,2011-08-02T14:42:00Z,25.0840,-81.0960,1014.37,1111122 
COMPS,ioos:station:USF.COMPS:NFB:1,2011-08-02T14:48:00Z,25.0840,-81.0960,1014.4,1111122 
COMPS,ioos:station:USF.COMPS:NFB:1,2011-08-02T14:54:00Z,25.0840,-81.0960,1014.48,1111122 
COMPS,ioos:station:USF.COMPS:NFB:1,2011-08-02T15:00:00Z,25.0840,-81.0960,1014.5,1111122 
COMPS,ioos:station:USF.COMPS:NFB:1,2011-08-02T15:06:00Z,25.0840,-81.0960,1014.6,1111122 
COMPS,ioos:station:USF.COMPS:NFB:1,2011-08-02T15:12:00Z,25.0840,-81.0960,1014.61,1111122 
COMPS,ioos:station:USF.COMPS:NFB:1,2011-08-02T15:18:00Z,25.0840,-81.0960,1014.65,1111122 
COMPS,ioos:station:USF.COMPS:NFB:1,2011-08-02T15:24:00Z,25.0840,-81.0960,1014.73,1111122 
COMPS,ioos:station:USF.COMPS:NFB:1,2011-08-02T15:30:00Z,25.0840,-81.0960,1014.77,1111122 
COMPS,ioos:station:USF.COMPS:NFB:1,2011-08-02T15:36:00Z,25.0840,-81.0960,1014.82,1111122 
COMPS,ioos:station:USF.COMPS:NFB:1,2011-08-02T15:42:00Z,25.0840,-81.0960,1014.8,1111122 
COMPS,ioos:station:USF.COMPS:NFB:1,2011-08-02T15:48:00Z,25.0840,-81.0960,1014.72,1111122 
COMPS,ioos:station:USF.COMPS:NFB:1,2011-08-02T15:54:00Z,25.0840,-81.0960,1014.69,1111122 
COMPS,ioos:station:USF.COMPS:NFB:1,2011-08-02T16:00:00Z,25.0840,-81.0960,1014.7,1111122 
COMPS,ioos:station:USF.COMPS:NFB:1,2011-08-02T16:06:00Z,25.0840,-81.0960,1014.65,1111122 
COMPS,ioos:station:USF.COMPS:NFB:1,2011-08-02T16:12:00Z,25.0840,-81.0960,1014.69,1111122 
COMPS,ioos:station:USF.COMPS:NFB:1,2011-08-02T16:18:00Z,25.0840,-81.0960,1014.72,1111122 
COMPS,ioos:station:USF.COMPS:NFB:1,2011-08-02T16:24:00Z,25.0840,-81.0960,1014.69,1111122 
COMPS,ioos:station:USF.COMPS:NFB:1,2011-08-02T16:30:00Z,25.0840,-81.0960,1014.66,1111122 
COMPS,ioos:station:USF.COMPS:NFB:1,2011-08-02T16:36:00Z,25.0840,-81.0960,1014.6,1111122 
COMPS,ioos:station:USF.COMPS:NFB:1,2011-08-02T16:42:00Z,25.0840,-81.0960,1014.6,1111122 
COMPS,ioos:station:USF.COMPS:NFB:1,2011-08-02T16:48:00Z,25.0840,-81.0960,1014.57,1111122 
COMPS,ioos:station:USF.COMPS:NFB:1,2011-08-02T16:54:00Z,25.0840,-81.0960,1014.49,1111122 
COMPS,ioos:station:USF.COMPS:NFB:1,2011-08-02T17:00:00Z,25.0840,-81.0960,1014.5,1111122 
COMPS,ioos:station:USF.COMPS:NFB:1,2011-08-02T17:06:00Z,25.0840,-81.0960,1014.4,1111122 
COMPS,ioos:station:USF.COMPS:NFB:1,2011-08-02T17:12:00Z,25.0840,-81.0960,1014.33,1111122 
COMPS,ioos:station:USF.COMPS:NFB:1,2011-08-02T17:18:00Z,25.0840,-81.0960,1014.22,1111122 
COMPS,ioos:station:USF.COMPS:NFB:1,2011-08-02T17:24:00Z,25.0840,-81.0960,1014.2,1111122 
COMPS,ioos:station:USF.COMPS:NFB:1,2011-08-02T17:30:00Z,25.0840,-81.0960,1014.26,1111122 
COMPS,ioos:station:USF.COMPS:NFB:1,2011-08-02T17:36:00Z,25.0840,-81.0960,1014.21,1111122 
COMPS,ioos:station:USF.COMPS:NFB:1,2011-08-02T17:42:00Z,25.0840,-81.0960,1014.24,1111122 
COMPS,ioos:station:USF.COMPS:NFB:1,2011-08-02T17:48:00Z,25.0840,-81.0960,1014.12,1111122 
COMPS,ioos:station:USF.COMPS:NFB:1,2011-08-02T17:54:00Z,25.0840,-81.0960,1013.97,1111122 
COMPS,ioos:station:USF.COMPS:NFB:1,2011-08-02T18:00:00Z,25.0840,-81.0960,1014.0,1111122 
COMPS,ioos:station:USF.COMPS:NFB:1,2011-08-02T18:06:00Z,25.0840,-81.0960,1013.89,1111122 
COMPS,ioos:station:USF.COMPS:NFB:1,2011-08-02T18:12:00Z,25.0840,-81.0960,1013.93,1111122 
COMPS,ioos:station:USF.COMPS:NFB:1,2011-08-02T18:18:00Z,25.0840,-81.0960,1014.04,1111122 
COMPS,ioos:station:USF.COMPS:NFB:1,2011-08-02T18:24:00Z,25.0840,-81.0960,1014.09,1111122 
COMPS,ioos:station:USF.COMPS:NFB:1,2011-08-02T18:30:00Z,25.0840,-81.0960,1014.04,1111122 
COMPS,ioos:station:USF.COMPS:NFB:1,2011-08-02T18:36:00Z,25.0840,-81.0960,1013.84,1111122 
COMPS,ioos:station:USF.COMPS:NFB:1,2011-08-02T18:42:00Z,25.0840,-81.0960,1013.7,1111122 
COMPS,ioos:station:USF.COMPS:NFB:1,2011-08-02T18:48:00Z,25.0840,-81.0960,1013.6,1111122 
COMPS,ioos:station:USF.COMPS:NFB:1,2011-08-02T18:54:00Z,25.0840,-81.0960,1013.54,1111122 
COMPS,ioos:station:USF.COMPS:NFB:1,2011-08-02T19:00:00Z,25.0840,-81.0960,1013.5,1111122 
COMPS,ioos:station:USF.COMPS:NFB:1,2011-08-02T19:06:00Z,25.0840,-81.0960,1013.45,1111122 
COMPS,ioos:station:USF.COMPS:NFB:1,2011-08-02T19:12:00Z,25.0840,-81.0960,1013.41,1111122 
COMPS,ioos:station:USF.COMPS:NFB:1,2011-08-02T19:18:00Z,25.0840,-81.0960,1013.37,1111122 
COMPS,ioos:station:USF.COMPS:NFB:1,2011-08-02T19:24:00Z,25.0840,-81.0960,1013.42,1111122 
COMPS,ioos:station:USF.COMPS:NFB:1,2011-08-02T19:30:00Z,25.0840,-81.0960,1013.56,1111122 
COMPS,ioos:station:USF.COMPS:NFB:1,2011-08-02T19:36:00Z,25.0840,-81.0960,1013.49,1111122 
COMPS,ioos:station:USF.COMPS:NFB:1,2011-08-02T19:42:00Z,25.0840,-81.0960,1013.42,1111122 
COMPS,ioos:station:USF.COMPS:NFB:1,2011-08-02T19:48:00Z,25.0840,-81.0960,1013.3,1111122 
COMPS,ioos:station:USF.COMPS:NFB:1,2011-08-02T19:54:00Z,25.0840,-81.0960,1013.32,1111122 
COMPS,ioos:station:USF.COMPS:NFB:1,2011-08-02T20:00:00Z,25.0840,-81.0960,1013.3,1111122 
COMPS,ioos:station:USF.COMPS:NFB:1,2011-08-02T20:06:00Z,25.0840,-81.0960,1013.06,1111122 
COMPS,ioos:station:USF.COMPS:NFB:1,2011-08-02T20:12:00Z,25.0840,-81.0960,1013.05,1111122 
COMPS,ioos:station:USF.COMPS:NFB:1,2011-08-02T20:18:00Z,25.0840,-81.0960,1013.01,1111122 
COMPS,ioos:station:USF.COMPS:NFB:1,2011-08-02T20:24:00Z,25.0840,-81.0960,1012.86,1111122 
COMPS,ioos:station:USF.COMPS:NFB:1,2011-08-02T20:30:00Z,25.0840,-81.0960,1012.74,1111122 
COMPS,ioos:station:USF.COMPS:NFB:1,2011-08-02T20:36:00Z,25.0840,-81.0960,1012.6,1111122 
COMPS,ioos:station:USF.COMPS:NFB:1,2011-08-02T20:42:00Z,25.0840,-81.0960,1012.57,1111122 
COMPS,ioos:station:USF.COMPS:NFB:1,2011-08-02T20:48:00Z,25.0840,-81.0960,1012.5,1111122 
COMPS,ioos:station:USF.COMPS:NFB:1,2011-08-02T20:54:00Z,25.0840,-81.0960,1012.45,1111122 
COMPS,ioos:station:USF.COMPS:NFB:1,2011-08-02T21:00:00Z,25.0840,-81.0960,1012.5,1111122 
COMPS,ioos:station:USF.COMPS:NFB:1,2011-08-02T21:06:00Z,25.0840,-81.0960,1012.18,1111122 
COMPS,ioos:station:USF.COMPS:NFB:1,2011-08-02T21:12:00Z,25.0840,-81.0960,1012.21,1111122 
COMPS,ioos:station:USF.COMPS:NFB:1,2011-08-02T21:18:00Z,25.0840,-81.0960,1012.21,1111122 
COMPS,ioos:station:USF.COMPS:NFB:1,2011-08-02T21:24:00Z,25.0840,-81.0960,1012.29,1111122 
COMPS,ioos:station:USF.COMPS:NFB:1,2011-08-02T21:30:00Z,25.0840,-81.0960,1012.45,1111122 
COMPS,ioos:station:USF.COMPS:NFB:1,2011-08-02T21:36:00Z,25.0840,-81.0960,1012.69,1111122 
COMPS,ioos:station:USF.COMPS:NFB:1,2011-08-02T21:42:00Z,25.0840,-81.0960,1012.77,1111122 
COMPS,ioos:station:USF.COMPS:NFB:1,2011-08-02T21:48:00Z,25.0840,-81.0960,1012.77,1111122 
COMPS,ioos:station:USF.COMPS:NFB:1,2011-08-02T21:54:00Z,25.0840,-81.0960,1012.84,1111122 
COMPS,ioos:station:USF.COMPS:NFB:1,2011-08-02T22:00:00Z,25.0840,-81.0960,1012.8,1111122 
COMPS,ioos:station:USF.COMPS:NFB:1,2011-08-02T22:06:00Z,25.0840,-81.0960,1012.9,1111122 
COMPS,ioos:station:USF.COMPS:NFB:1,2011-08-02T22:12:00Z,25.0840,-81.0960,1012.89,1111122 
COMPS,ioos:station:USF.COMPS:NFB:1,2011-08-02T22:18:00Z,25.0840,-81.0960,1012.89,1111122 
COMPS,ioos:station:USF.COMPS:NFB:1,2011-08-02T22:24:00Z,25.0840,-81.0960,1012.94,1111122 
COMPS,ioos:station:USF.COMPS:NFB:1,2011-08-02T22:30:00Z,25.0840,-81.0960,1012.84,1111122 
COMPS,ioos:station:USF.COMPS:NFB:1,2011-08-02T22:36:00Z,25.0840,-81.0960,1012.82,1111122 
COMPS,ioos:station:USF.COMPS:NFB:1,2011-08-02T22:42:00Z,25.0840,-81.0960,1012.77,1111122 
COMPS,ioos:station:USF.COMPS:NFB:1,2011-08-02T22:48:00Z,25.0840,-81.0960,1012.88,1111122 
COMPS,ioos:station:USF.COMPS:NFB:1,2011-08-02T22:54:00Z,25.0840,-81.0960,1012.89,1111122 
COMPS,ioos:station:USF.COMPS:NFB:1,2011-08-02T23:00:00Z,25.0840,-81.0960,1012.9,1111122 
COMPS,ioos:station:USF.COMPS:NFB:1,2011-08-02T23:06:00Z,25.0840,-81.0960,1012.96,1111122 
COMPS,ioos:station:USF.COMPS:NFB:1,2011-08-02T23:12:00Z,25.0840,-81.0960,1012.9,1111122 
COMPS,ioos:station:USF.COMPS:NFB:1,2011-08-02T23:18:00Z,25.0840,-81.0960,1013.04,1111122 
COMPS,ioos:station:USF.COMPS:NFB:1,2011-08-02T23:24:00Z,25.0840,-81.0960,1013.05,1111122 
COMPS,ioos:station:USF.COMPS:NFB:1,2011-08-02T23:30:00Z,25.0840,-81.0960,1012.98,1111122 
COMPS,ioos:station:USF.COMPS:NFB:1,2011-08-02T23:36:00Z,25.0840,-81.0960,1012.97,1111122 
COMPS,ioos:station:USF.COMPS:NFB:1,2011-08-02T23:42:00Z,25.0840,-81.0960,1012.96,1111122 
COMPS,ioos:station:USF.COMPS:NFB:1,2011-08-02T23:48:00Z,25.0840,-81.0960,1013.01,1111122 
COMPS,ioos:station:USF.COMPS:NFB:1,2011-08-02T23:54:00Z,25.0840,-81.0960,1012.94,1111122 
COMPS,ioos:station:USF.COMPS:NFB:1,2011-08-03T00:00:00Z,25.0840,-81.0960,1012.9,1111122 
COMPS,ioos:station:USF.COMPS:NFB:1,2011-08-03T00:06:00Z,25.0840,-81.0960,1012.92,1111122 
COMPS,ioos:station:USF.COMPS:NFB:1,2011-08-03T00:12:00Z,25.0840,-81.0960,1012.85,1111122 
COMPS,ioos:station:USF.COMPS:NFB:1,2011-08-03T00:18:00Z,25.0840,-81.0960,1012.8,1111122 